Find Starlink 31055

NORAD ID: 58539 Int'l Des: 2023-192 Owner: SPXS Country: US Constellation: starlink operational
LEOCIRCULAR

リアルタイム位置

3D地球を読み込み中...

Starlink 31055について

説明を読み込み中...

次回通過

Passes for default location (London). Set your location on the main map for personalized predictions.

高度履歴

Loading altitude history...

軌道要素

1 58539U 23192J 26126.33294122 .00000197 00000-0 16968-4 0 9991
2 58539 53.1614 154.7937 0001025 70.1959 289.9154 15.34377305134810
Epoch: May 6, 2026 • Age: 19 hours

現在のステータス

高度 466.8 km
速度 7.64 km/s
衛星直下点 44.31°N, 10.38°E
打ち上げ日 Dec 8, 2023
運用期間 2.4 years
タイプ internet

技術仕様

分類 Payload
質量 730.00 kg
乾燥質量 700.00 kg
総質量 730.00 kg
長さ 0.30 m
直径 4.10 m
スパン 29.00 m
形状 Box + pan
製造者 SPXS
バスタイプ Starlink V2M
フェーズステータス In Orbit
所有者/国 SPXS/US

Most Searched